OBJECT J

Satellite information

Favourite Embed

Satellite Type and Status

UNKNOWNIN ORBIT

Key statistics

Satellite OBJECT J at a glance.

Uptime

3074

Days in orbit

Revolutions

≈ 15.1

Per day

Orbit

SSO

Sun Synchronous Orbit

Inclination

97.4

Latest

Satellite identification and parameters

Extended collection of information and parameters for OBJECT J.

Object identification

Identified? True

Debris? False

Object name: OBJECT J

International designator: 2017-042J

Object number (NORAD): 42833

Object ID (CCSDS): 42833

Country: TO BE DETERMINED/UNKNOWN (TBD)

Current information (Y/N): Y

RCS size: SMALL

Orbital parameters

Period: 95.555 minutes

Inclination: 97.4132 deg

SMA: 6923.54 km

Apoapsis: 550.446 km

Periapsis: 540.364 km

RAAN: 150.1309 deg

Eccentricy: 0.0007281

Argument of periapsis: 28.1921 deg

Mean anomaly: 331.97 deg

Mean motion: 15.06990193 rev/day

Mean motion (dot): 0.00008117 rev/day2

B* drag term: 0.00054571 1/REarth

Two-line elements (TLE)

Creation date: Dec. 12, 2025, 7:16 a.m.

Reference frame: TEME

Reference center: EARTH

Epoch: Dec. 11, 2025, 11:01 p.m. UTC

TLE line 0: 0 OBJECT J

TLE line 1: 1 42833U 17042J 25345.95949566 .00008117 00000-0 54571-3 0 9998

TLE line 2: 2 42833 97.4132 150.1309 0007281 28.1921 331.9700 15.06990193458797

Live tracking on map

Real-time ground track for satellite OBJECT J.

In-orbit conjunctions

There are no conjunctions computed for OBJECT J, at the moment. Check back to stay up to date, as we update our databases every day.

Go to all conjunctions

Associated space launch

Kanopus-V-IK is a small Russian remote sensing satellite for monitoring wildfires. Weighing about 473 kg, it is intended for 5 years of operation in a 510 km sun-synchronous orbit.

OBJECT J was lifted into orbit during the mission ‘Soyuz-2.1a/Fregat | Kanopus-V-IK’, on board a Soyuz 2.1a/Fregat-M space rocket.

The launch took place on July 14, 2017, 6:36 a.m. from 31/6.

For more information about the launch, click the button.

Launch to space Soyuz-2.1a/Fregat | Kanopus-V-IK
Soyuz-2.1a/Fregat | Kanopus-V-IK

Agency: N/A

Status: Launch was a Partial Failure

Launch date: July 14, 2017, 6:36 a.m. UTC

Rocket: Soyuz 2.1a/Fregat-M

Launch pad: 31/6

Location: Baikonur Cosmodrome, Republic of Kazakhstan

...

Latest news about this satellite

There are no fresh news available about this satellite. Check back as we update our databases every day.


Newsletter sign-up

Weekly statistics, charts and insights to help you stay on top of the space industry.